Terminal Aerodrome Forecast
Issued by NWS

Home | Current Version | Previous Version | Graphics & Text | Print | Product List | Glossary On
Versions: 1 2 3 4 5 6 7 8 9 10 11 12 13 14 15 16 17 18 19
675
FTUS43 KGRB 061012 AAA
TAFAUW
TAF AMD
KAUW 061012Z 0610/0706 16008KT 6SM BR SCT006 OVC010
      TEMPO 0610/0614 4SM -FZDZ BR OVC006
     FM061600 21010G17KT 6SM -SHSN OVC008
      TEMPO 0616/0620 3SM -SHSN SCT008 BKN015
     FM062000 25013G22KT P6SM -SHSN BKN015
     FM062200 25014G24KT P6SM -SHSN BKN025=

USA.gov is the U.S. government's official web portal to all federal, state and local government web resources and services.